Preview of NWS' New Version of Forecast
This preview is not operational and should not be used for support decisions.

Regional Weather Roundup (RWR)

Issued by Philadelphia/Mt Holly (PHI)

                            
000
ASUS41 KPHI 211512
RWRPHI

REGIONAL WEATHER ROUNDUP
NATIONAL WEATHER SERVICE MOUNT HOLLY NJ
1100 AM EDT THU MAR 21 2019

NOTE:  "FAIR" INDICATES FEW OR NO CLOUDS BELOW 12,000 FEET WITH NO
SIGNIFICANT WEATHER AND/OR OBSTRUCTIONS TO VISIBILITY.

 * = STATION DOES NOT REPORT PRECIPITATION (E.G. RAIN, SNOW, ETC.) 
        OR FOG.

NJZ015>026-211600-
SOUTHERN NEW JERSEY
  
CITY           SKY/WX    TMP DP  RH WIND       PRES   REMARKS
POMONA         LGT RAIN  49  48  97 SE18G29   29.99F                  
WILDWOOD*      LGT RAIN  49  47  93 E16G25    29.97F                  
MILLVILLE      LGT RAIN  50  48  93 E14       29.97F FOG              
MOUNT HOLLY    LGT RAIN  47  44  90 E7        30.02F FOG              
TRENTON        LGT RAIN  45  44  97 E8        30.03F FOG              

$$
NJZ001>014-211600-
NORTHERN NEW JERSEY
  
CITY           SKY/WX    TMP DP  RH WIND       PRES   REMARKS
SUSSEX         CLOUDY    40  39  97 NE6       30.08F                  
ANDOVER*         N/A     43  39  86 MISG      30.06F                  
MORRISTOWN     LGT RAIN  43  43 100 NE7       30.09F FOG              
NEWARK         LGT RAIN  46  44  93 E7        30.09F FOG              
TETERBORO      DRIZZLE   44  40  85 MISG      30.10F FOG              
CALDWELL       LGT RAIN  43  42  97 E7        30.10F FOG              
SOMERVILLE     LGT RAIN  45  43  93 VRB3      30.05F FOG              
ALLAIRE*       LGT RAIN  45  43  93 E10       30.07S                  
TOMS RIVER*    LGT RAIN  48  47  96 E8        30.03F                  

$$
PAZ043-044-047-054-055-060>062-066>071-211600-
EASTERN PENNSYLVANIA
  
CITY           SKY/WX    TMP DP  RH WIND       PRES   REMARKS
PHILADELPHIA   LGT RAIN  47  45  93 E14       30.00F                  
NORTH PHILA    LGT RAIN  48  44  86 E10       30.03F                  
BLUE BELL*     CLOUDY    43  43 100 E12       30.01F                  
DOYLESTOWN     RAIN      44  41  89 MISG      30.02F FOG              
QUAKERTOWN*    CLOUDY    43  43 100 E9G15     30.01F FOG              
PERKASIE*      LGT RAIN  41  41 100 E10       30.02F                  
POTTSTOWN      LGT RAIN  43  43 100 E8        30.00F FOG              
LANCASTER      RAIN      44  42  93 NE8       29.97F FOG              
COATESVILLE    LGT RAIN  43  43 100 E13G20    29.98F                  
READING        HVY RAIN  42  42 100 N14       29.97F FOG              
ALLENTOWN      RAIN      44  40  85 E12       30.03F FOG              
MOUNT POCONO   LGT RAIN  35  35 100 E9        30.01F FOG     WCI  28  
HAZLETON       RAIN      37  36  93 E8        30.02F WCI  31          
LEHIGHTON      LGT RAIN  39  39 100 NE3       30.05F                  
WILKES BARRE   LGT RAIN  41  38  89 VRB5      30.03F FOG              

$$
DEZALL-MDZ008-012-015-019-020-211600-
DELAWARE AND EASTERN MARYLAND
  
CITY           SKY/WX    TMP DP  RH WIND       PRES   REMARKS
WILMINGTON     CLOUDY    49  47  93 E5        29.97F                  
GEORGETOWN     LGT RAIN  52  49  89 SE8       29.95F FOG              
EASTON         RAIN      50  48  93 E7        29.98F                  
PATUXENT       RAIN      51  51 100 NE8       29.89F FOG              
OCEAN CITY       N/A    N/A N/A N/A MISG      29.93F                  
WALLOPS ISLAND RAIN      54  52  93 SE10      29.91F FOG              
CAMBRIDGE      PTSUNNY   50  50 100 VRB3      29.92F FOG              
SALISBURY      LGT RAIN  51  51 100 E8        29.91F FOG              

$$
PAZ001-021-NYZ056-072-MDZ011-DCZ001-211600-
OTHER NEARBY LOCATIONS
  
CITY           SKY/WX    TMP DP  RH WIND       PRES   REMARKS
HARRISBURG     LGT RAIN  42  39  89 E6        29.99F FOG              
STATE COLLEGE  CLOUDY    39  34  81 N5        29.98S                  
WILLIAMSPORT   LGT RAIN  42  38  85 E10       30.01F FOG              
BINGHAMTON     CLOUDY    39  31  72 SE13      29.99F WCI  31          
NEW YORK CITY  LGT RAIN  44  42  93 VRB3      30.12F FOG              
BALTIMORE      RAIN      46  45  96 N6        29.94F FOG              
WASHINGTON DC  HVY RAIN  46  43  89 N9        29.95F FOG              

$$